Hourly Data Report for September 06, 2010

PETERBOROUGH AWOS
ONTARIO

44°14'00.000" N
78°22'00.000" W
191.40 m
6166420

Download Data

Hourly Data (September 2010)
Hourly Data Report for September 6, 2010
TIME
LST
Temp Definition
°C
Dew Point Definition
°C
Rel Hum Definition
%
Precip. Amount Definition
mm

Wind Dir Definition
10's deg

Wind Spd Definition
km/h
Visibility Definition
km
Stn Press Definition
kPa
Hmdx Definition


Wind Chill Definition


Weather Definition


00:00 7.3 7.3 100   LegendMM LegendMM 15.0 99.33      
01:00 6.2 6.2 100   LegendMM LegendMM 15.0 99.34      
02:00 6.0 6.0 100   LegendMM LegendMM 15.0 99.35      
03:00 7.1 7.1 100   LegendMM LegendMM 15.0 99.36      
04:00 6.7 6.7 100   LegendMM LegendMM 15.0 99.39      
05:00 6.3 6.2 99   LegendMM LegendMM 15.0 99.39      
06:00 6.9 6.8 99   LegendMM LegendMM 15.0 99.43      
07:00 9.4 9.3 99   LegendMM LegendMM 15.0 99.47      
08:00 12.2 11.5 95   LegendMM LegendMM 15.0 99.48      
09:00 14.4 13.2 92   LegendMM LegendMM 15.0 99.53      
10:00 16.1 13.3 83   LegendMM LegendMM 15.0 99.54     Rain
11:00 16.1 13.9 87   LegendMM LegendMM 15.0 99.52     Rain
12:00 16.3 14.1 87   LegendMM LegendMM 15.0 99.48      
13:00 16.7 14.6 87   LegendMM LegendMM 15.0 99.45      
14:00 17.7 15.6 88   LegendMM LegendMM 15.0 99.38      
15:00 19.1 15.1 78   LegendMM LegendMM 15.0 99.38      
16:00 19.2 14.2 73   LegendMM LegendMM 15.0 99.37      
17:00 18.5 13.4 72   LegendMM LegendMM 15.0 99.39      
18:00 18.4 13.1 71   LegendMM LegendMM 15.0 99.34     Rain
19:00 17.5 13.1 75   LegendMM LegendMM 15.0 99.38      
20:00 18.4 13.1 71   LegendMM LegendMM 15.0 99.38      
21:00 18.3 13.2 72   LegendMM LegendMM 15.0 99.40      
22:00 16.3 13.5 83   LegendMM LegendMM 15.0 99.37      
23:00 16.3 14.2 87   LegendMM LegendMM 15.0 99.40      

Notes on Data Quality.

Legend

  • E = Estimated
  • M = Missing
  • NA = Not Available*
  • [empty] = Indicates an unobserved value
Date modified: